Weather History for Luverne, MN

Change the Weather History Date:

Saturday, June 15, 2013

  Actual Average (KFSD) Record (KFSD)
Temperature  
Mean Temperature 71 °F 68 °F  
Max Temperature 78 °F 79 °F 98 °F (1959)
Min Temperature 64 °F 56 °F 37 °F (1968)
Degree Days  
Heating Degree Days 0 1  
Month to date heating degree days 40  
Since 1 June heating degree days 40  
Since 1 July heating degree days 7695  
Cooling Degree Days 6 4  
Month to date cooling degree days 46  
Year to date cooling degree days 82  
Since 1 June cooling degree days 46  
Growing Degree Days 21 (Base 50)    
Moisture  
Dew Point 61 °F    
Average Humidity 73    
Maximum Humidity 94    
Minimum Humidity 44    
Precipitation  
Precipitation 0.35 in 0.13 in 2.74 in (2014)
Month to date precipitation 1.99  
Year to date precipitation 11.32  
Snow  
Snow 0.00 in 0.00 in 0.00 in ()
Month to date snowfall 0.0  
Since 1 June snowfall 0.0  
Since 1 July snowfall 44.5  
Snow Depth -    
Sea Level Pressure  
Sea Level Pressure 29.92 in    
Wind  
Wind Speed 5 mph (NNE)    
Max Wind Speed 22 mph    
Max Gust Speed 28 mph    
Visibility 10 miles    
Events Rain , Thunderstorm    
T = Trace of Precipitation, MM = Missing Value Source: NWS Daily Summary

Daily Weather History Graph

Daily Weather History Graph

Search for Another Location

Airport:

Trip Planner

Search our weather history database for the weather conditions in past years. The results will help you decide how hot, cold, wet, or windy it might be!

Date:

Astronomy

Jun. 15, 2013 Rise Set
Actual Time 5:42 AM CDT 9:08 PM CDT
Civil Twilight 5:06 AM CDT 9:44 PM CDT
Nautical Twilight 4:19 AM CDT 10:31 PM CDT
Astronomical Twilight 3:20 AM CDT 11:30 PM CDT
Moon 12:30 PM CDT (6/15) 12:33 AM CDT (6/15)
Length of Visible Light 16h 37m
Length of Day
15h 25m
Waxing Crescent, 40% of the Moon is Illuminated
Jun 15
Waxing Crescent
Jun 16
First Quarter
Jun 23
Full
Jun 29
Last Quarter
Jul 8
New

Hourly Weather History & Observations

Time (CDT) Temp. Dew Point Humidity Pressure Visibility Wind Dir Wind Speed Gust Speed Precip Events Conditions
12:13 AM 69.8 °F 62.6 °F 78% 29.87 in 10.0 mi ESE 9.2 mph - N/A   Clear
12:34 AM 69.8 °F 62.6 °F 78% 29.89 in 10.0 mi SE 10.4 mph - N/A   Clear
12:54 AM 68.0 °F 62.6 °F 83% 29.90 in 10.0 mi SE 9.2 mph - N/A   Clear
1:13 AM 68.0 °F 62.6 °F 83% 29.90 in 10.0 mi SSE 6.9 mph - N/A   Clear
1:34 AM 68.0 °F 62.6 °F 83% 29.90 in 10.0 mi SSE 4.6 mph - N/A   Clear
1:54 AM 68.0 °F 62.6 °F 83% 29.90 in 10.0 mi Calm Calm - N/A   Clear
2:13 AM 68.0 °F 62.6 °F 83% 29.90 in 10.0 mi Calm Calm - N/A   Clear
2:34 AM 66.2 °F 60.8 °F 83% 29.90 in 10.0 mi Calm Calm - N/A   Clear
2:53 AM 64.4 °F 60.8 °F 88% 29.90 in 10.0 mi SSW 4.6 mph - N/A   Clear
3:13 AM 64.4 °F 62.6 °F 94% 29.90 in 10.0 mi South 4.6 mph - N/A   Clear
3:34 AM 64.4 °F 62.6 °F 94% 29.89 in 7.0 mi Calm Calm - N/A   Clear
3:53 AM 64.4 °F 62.6 °F 94% 29.89 in 10.0 mi Calm Calm - N/A   Clear
4:13 AM 64.4 °F 60.8 °F 88% 29.90 in 10.0 mi South 3.5 mph - N/A   Clear
4:34 AM 64.4 °F 60.8 °F 88% 29.90 in 10.0 mi Calm Calm - N/A   Clear
4:53 AM 64.4 °F 60.8 °F 88% 29.91 in 10.0 mi SSW 4.6 mph - N/A   Clear
5:14 AM 64.4 °F 60.8 °F 88% 29.90 in 10.0 mi Calm Calm - N/A   Clear
5:33 AM 64.4 °F 60.8 °F 88% 29.88 in 10.0 mi NE 3.5 mph - N/A   Clear
5:54 AM 64.4 °F 60.8 °F 88% 29.90 in 10.0 mi Calm Calm - N/A   Clear
6:14 AM 64.4 °F 60.8 °F 88% 29.89 in 7.0 mi Calm Calm - N/A   Clear
6:33 AM 64.4 °F 60.8 °F 88% 29.90 in 7.0 mi Calm Calm - N/A   Clear
6:54 AM 64.4 °F 60.8 °F 88% 29.90 in 10.0 mi Calm Calm - N/A   Clear
7:14 AM 68.0 °F 62.6 °F 83% 29.90 in 10.0 mi Calm Calm - N/A   Scattered Clouds
7:33 AM 68.0 °F 62.6 °F 83% 29.91 in 10.0 mi Calm Calm - N/A   Mostly Cloudy
7:54 AM 68.0 °F 62.6 °F 83% 29.92 in 10.0 mi Calm Calm - N/A   Mostly Cloudy
8:14 AM 69.8 °F 62.6 °F 78% 29.93 in 10.0 mi Calm Calm - N/A   Overcast
8:33 AM 69.8 °F 62.6 °F 78% 29.95 in 10.0 mi WNW 3.5 mph - N/A   Overcast
8:54 AM 69.8 °F 62.6 °F 78% 29.92 in 10.0 mi North 12.7 mph - N/A   Scattered Clouds
9:13 AM 69.8 °F 62.6 °F 78% 29.93 in 10.0 mi North 11.5 mph - N/A   Scattered Clouds
9:34 AM 69.8 °F 62.6 °F 78% 29.95 in 10.0 mi North 8.1 mph - N/A Thunderstorm Clear
9:54 AM 69.8 °F 60.8 °F 73% 29.93 in 10.0 mi North 8.1 mph - N/A   Scattered Clouds
10:13 AM 69.8 °F 60.8 °F 73% 29.96 in 10.0 mi NNW 8.1 mph - N/A Rain Light Rain
10:34 AM 68.0 °F 62.6 °F 83% 29.96 in 10.0 mi NW 9.2 mph - N/A Rain , Thunderstorm Rain
10:54 AM 68.0 °F 60.8 °F 78% 30.00 in 7.0 mi SW 13.8 mph - 0.04 in Rain , Thunderstorm Heavy Thunderstorms and Rain
11:13 AM 66.2 °F 60.8 °F 83% 30.01 in 5.0 mi West 9.2 mph 17.3 mph 0.07 in Rain , Thunderstorm Heavy Thunderstorms and Rain
11:34 AM 64.4 °F 60.8 °F 88% 29.99 in 2.5 mi North 11.5 mph 16.1 mph 0.27 in Rain , Thunderstorm Heavy Thunderstorms and Rain
11:54 AM 64.4 °F 60.8 °F 88% 29.89 in 7.0 mi NE 21.9 mph 27.6 mph 0.31 in Rain Light Rain
12:13 PM 64.4 °F 60.8 °F 88% 29.90 in 10.0 mi NNE 8.1 mph 18.4 mph N/A Rain Light Rain
12:34 PM 68.0 °F 60.8 °F 78% 29.90 in 10.0 mi NE 16.1 mph 21.9 mph N/A   Clear
12:53 PM 69.8 °F 62.6 °F 78% 29.90 in 10.0 mi ENE 13.8 mph 21.9 mph N/A   Clear
1:14 PM 71.6 °F 62.6 °F 73% 29.93 in 10.0 mi North 8.1 mph 17.3 mph N/A   Clear
1:34 PM 71.6 °F 62.6 °F 73% 29.95 in 10.0 mi NNE 9.2 mph - N/A   Clear
1:53 PM 71.6 °F 62.6 °F 73% 29.94 in 10.0 mi NNE 12.7 mph 18.4 mph N/A   Clear
2:14 PM 73.4 °F 60.8 °F 65% 29.94 in 10.0 mi NE 11.5 mph - N/A   Clear
2:34 PM 73.4 °F 62.6 °F 69% 29.95 in 10.0 mi North 6.9 mph - N/A   Clear
2:53 PM 75.2 °F 62.6 °F 65% 29.94 in 10.0 mi NNE 8.1 mph - N/A   Clear
3:14 PM 77.0 °F 60.8 °F 57% 29.94 in 10.0 mi NE 4.6 mph - N/A   Clear
3:34 PM 78.8 °F 60.8 °F 54% 29.94 in 10.0 mi North 8.1 mph - N/A   Clear
3:53 PM 78.8 °F 62.6 °F 57% 29.94 in 10.0 mi NNE 6.9 mph - N/A   Clear
4:14 PM 78.8 °F 62.6 °F 57% 29.94 in 10.0 mi North 8.1 mph - N/A   Scattered Clouds
4:34 PM 77.0 °F 60.8 °F 57% 29.93 in 10.0 mi Calm Calm - N/A   Scattered Clouds
4:53 PM 78.8 °F 60.8 °F 54% 29.92 in 10.0 mi NNW 4.6 mph - N/A   Clear
5:14 PM 78.8 °F 59.0 °F 51% 29.92 in 10.0 mi North 4.6 mph - N/A   Clear
5:33 PM 78.8 °F 59.0 °F 51% 29.92 in 10.0 mi North 4.6 mph - N/A   Clear
5:54 PM 78.8 °F 59.0 °F 51% 29.92 in 10.0 mi Calm Calm - N/A   Clear
6:14 PM 78.8 °F 59.0 °F 51% 29.91 in 10.0 mi North 3.5 mph - N/A   Clear
6:33 PM 78.8 °F 57.2 °F 47% 29.91 in 10.0 mi Calm Calm - N/A   Clear
6:54 PM 78.8 °F 57.2 °F 47% 29.91 in 10.0 mi NNW 5.8 mph - N/A   Clear
7:14 PM 78.8 °F 57.2 °F 47% 29.90 in 10.0 mi NE 3.5 mph - N/A   Clear
7:33 PM 78.8 °F 55.4 °F 44% 29.91 in 10.0 mi NNE 3.5 mph - N/A   Clear
7:54 PM 78.8 °F 55.4 °F 44% 29.91 in 10.0 mi North 3.5 mph - N/A   Clear
8:13 PM 78.8 °F 57.2 °F 47% 29.91 in 10.0 mi North 3.5 mph - N/A   Clear
8:34 PM 77.0 °F 57.2 °F 50% 29.91 in 10.0 mi Calm Calm - N/A   Clear
8:53 PM 75.2 °F 59.0 °F 57% 29.91 in 10.0 mi Calm Calm - N/A   Clear
9:13 PM 73.4 °F 60.8 °F 65% 29.92 in 10.0 mi Calm Calm - N/A   Clear
9:34 PM 71.6 °F 59.0 °F 64% 29.93 in 10.0 mi Calm Calm - N/A   Clear
9:53 PM 69.8 °F 60.8 °F 73% 29.95 in 10.0 mi Calm Calm - N/A   Clear
10:14 PM 68.0 °F 59.0 °F 73% 29.96 in 10.0 mi Calm Calm - N/A   Clear
10:34 PM 69.8 °F 57.2 °F 64% 29.96 in 10.0 mi Calm Calm - N/A   Clear
10:53 PM 68.0 °F 55.4 °F 64% 29.97 in 10.0 mi Calm Calm - N/A   Clear
11:14 PM 66.2 °F 59.0 °F 78% 29.96 in 10.0 mi Calm Calm - N/A   Clear
11:34 PM 64.4 °F 59.0 °F 83% 29.96 in 10.0 mi Calm Calm - N/A   Clear
11:53 PM 64.4 °F 60.8 °F 88% 29.97 in 10.0 mi Calm Calm - N/A   Clear